Regional Weather Roundup
Issued by NWS

Home | Current Version | Previous Version | Text Only | Print | Product List | Glossary On
Versions: 1 2 3 4 5 6 7 8 9 10 11 12 13 14 15 16 17 18 19 20 21 22 23 24 25 26 27 28 29 30 31 32 33 34 35 36 37 38 39 40 41 42 43 44 45 46 47 48 49 50
000
ASUS43 KDTX 231201
RWRMI
MICHIGAN HOURLY REGIONAL WEATHER ROUNDUP
NATIONAL WEATHER SERVICE DETROIT/PONTIAC MI
800 AM EDT SAT MAY 23 2015

NOTE: "FAIR" INDICATES FEW OR NO CLOUDS BELOW 12,000 FEET WITH NO
SIGNIFICANT WEATHER AND/OR OBSTRUCTION TO VISIBILITY.

MIZ047>049-052>055-059>063-066>070-074>076-081>083-231300-
SOUTHEAST LOWER MICHIGAN

CITY           SKY/WX    TMP DP  RH WIND       PRES   REMARKS
ADRIAN         SUNNY     49  40  71 CALM      30.40R
6HR MIN TEMP:  40; 6HR MAX TEMP:  49;

ALMA           SUNNY     47  40  78 S7        30.37R
ANN ARBOR      SUNNY     47  35  63 CALM      30.40R
BAD AXE        SUNNY     46  28  49 S8        30.38R
CARO           SUNNY     41  33  74 CALM      30.37S
DETROIT CITY   SUNNY     49  37  63 SE3       30.41R
6HR MIN TEMP:  39; 6HR MAX TEMP:  49;

DETROIT        MOSUNNY   50  35  56 NE3       30.41R
6HR MIN TEMP:  41; 6HR MAX TEMP:  50;

FLINT          SUNNY     49  35  58 S3        30.40R
6HR MIN TEMP:  36; 6HR MAX TEMP:  49;

GROSSE ILE     SUNNY     48  39  71 CALM      30.39R
HILLSDALE      SUNNY     51  42  73 SE6       30.38S
HOWELL         SUNNY     46  33  60 SE6       30.39R
6HR MIN TEMP:  37; 6HR MAX TEMP:  46;


CITY           SKY/WX    TMP DP  RH WIND       PRES   REMARKS
JACKSON        SUNNY     50  41  71 S5        30.39R
6HR MIN TEMP:  40; 6HR MAX TEMP:  50;

LAMBERTVILLE   SUNNY     52  45  76 CALM      30.40R
LANSING        SUNNY     50  40  68 S6        30.39R
6HR MIN TEMP:  41; 6HR MAX TEMP:  50;

LAPEER         FAIR      42  33  70 CALM      30.39R
MASON          SUNNY     46  38  74 S6        30.38S
PONTIAC        MOSUNNY   46  34  62 CALM      30.39R
6HR MIN TEMP:  34; 6HR MAX TEMP:  46;

PORT HOPE        N/A     46  25  43 SW7       30.36R
6HR MIN TEMP:  37; 6HR MAX TEMP:  46;

PORT HURON     SUNNY     41  36  81 S3        30.41R
TRI CITIES     SUNNY     46  33  60 SW7       30.38R
6HR MIN TEMP:  39; 6HR MAX TEMP:  46;

MIDLAND        FAIR      44  36  73 CALM      30.37R
TROY           SUNNY     47  32  55 CALM      30.42R
SAGINAW HB     SUNNY     45  32  61 S8        30.37R
$$
MIZ043>046-050>051-056>058-064>065-071>073-077>080-231300-
SOUTHWEST LOWER MICHIGAN

CITY           SKY/WX    TMP DP  RH WIND       PRES   REMARKS
BATTLE CREEK   SUNNY     50  40  68 S3        30.38R
6HR MIN TEMP:  43; 6HR MAX TEMP:  53;

BENTON HARBOR  SUNNY     50  37  61 SE7       30.35R
6HR MIN TEMP:  40; 6HR MAX TEMP:  50;

BIG RAPIDS     SUNNY     40  34  78 CALM      30.36R
6HR MIN TEMP:  34; 6HR MAX TEMP:  40;

COLDWATER      SUNNY     48  40  74 SE3       30.38R
6HR MIN TEMP:  41; 6HR MAX TEMP:  48;

FREMONT        FAIR      47  35  62 CALM      30.36R
HOLLAND        SUNNY     51  38  60 S8        30.37R
6HR MIN TEMP:  44; 6HR MAX TEMP:  51;

GRAND RAPIDS   MOSUNNY   49  39  68 S5        30.37R
6HR MIN TEMP:  40; 6HR MAX TEMP:  49;

IONIA          FAIR      51  39  65 S8        30.36R
KALAMAZOO      SUNNY     51  41  68 S3        30.38R
6HR MIN TEMP:  42; 6HR MAX TEMP:  51;

LUDINGTON      SUNNY     44  40  85 CALM      30.35S
6HR MIN TEMP:  33; 6HR MAX TEMP:  44;

MARSHALL       SUNNY     49  40  73 SE5       30.38R
MOUNT PLEASANT SUNNY     44  41  90 CALM      30.36R
6HR MIN TEMP:  34; 6HR MAX TEMP:  44;

MUSKEGON       SUNNY     48  39  71 CALM      30.37R
6HR MIN TEMP:  37; 6HR MAX TEMP:  48;

SOUTH HAVEN    SUNNY     52  33  49 SE3       30.36R
$$
MIZ016>042-231300-
NORTHERN LOWER MICHIGAN

CITY           SKY/WX    TMP DP  RH WIND       PRES   REMARKS
ALPENA         SUNNY     43  29  57 SW5       30.34R
6HR MIN TEMP:  26; 6HR MAX TEMP:  43;

BEAVER ISLAND  SUNNY     51  25  35 SW12G18   30.29S
6HR MIN TEMP:  32; 6HR MAX TEMP:  51;

BELLAIRE       SUNNY     42  35  73 CALM      30.34S
6HR MIN TEMP:  29; 6HR MAX TEMP:  42;

CADILLAC       SUNNY     47  34  60 SW7       30.33S
CHARLEVOIX     SUNNY     46  32  57 CALM      30.34S
6HR MIN TEMP:  37; 6HR MAX TEMP:  46;

FRANKFORT      SUNNY     52  27  37 CALM      30.34R
GAYLORD        SUNNY     45  28  51 SW3       30.33R
6HR MIN TEMP:  32; 6HR MAX TEMP:  45;

HARBOR SPRINGS SUNNY     46  28  49 SW3       30.32R
HOUGHTON LAKE  SUNNY     49  34  56 SW7       30.36R
6HR MIN TEMP:  30; 6HR MAX TEMP:  49;

MANISTEE       SUNNY     39  32  75 E5        30.36R
OSCODA         SUNNY     45  33  62 SW9       30.36R
PELLSTON       SUNNY     46  33  60 CALM      30.30R
6HR MIN TEMP:  26; 6HR MAX TEMP:  46;

ROGERS CITY    SUNNY     48  29  47 SW10      30.31F
TRAVERSE CITY  MOSUNNY   49  30  48 CALM      30.33R
6HR MIN TEMP:  35; 6HR MAX TEMP:  49;

$$
MIZ007>008-015-231300-
EASTERN UPPER MICHIGAN

CITY           SKY/WX    TMP DP  RH WIND       PRES   REMARKS
KINROSS        MOSUNNY   45  34  65 SW7       30.25F
6HR MIN TEMP:  30; 6HR MAX TEMP:  45;

MACKINAC ISLAN SUNNY     47  28  48 SW9       30.27S
6HR MIN TEMP:  36; 6HR MAX TEMP:  47;

NEWBERRY       MOSUNNY   47  28  48 SW17      30.24S
S. S. MARIE    PTSUNNY   35  30  82 CALM      30.26S
6HR MIN TEMP:  30; 6HR MAX TEMP:  35;

$$
MIZ004>006-011>014-085-231300-
CENTRAL UPPER MICHIGAN

CITY           SKY/WX    TMP DP  RH WIND       PRES   REMARKS
MANISTIQUE     SUNNY     46  39  77 S8        30.26S
ESCANABA       SUNNY     45  34  65 SW3       30.27S
6HR MIN TEMP:  34; 6HR MAX TEMP:  45;

MENOMINEE      SUNNY     48  32  53 SW5       30.29S
6HR MIN TEMP:  43; 6HR MAX TEMP:  48;

SAWYER-GWINN   SUNNY     45  30  57 W6        30.23S
$$
MIZ001>003-009>011-084-231300-
WESTERN UPPER MICHIGAN

CITY           SKY/WX    TMP DP  RH WIND       PRES   REMARKS
IRON MOUNTAIN  SUNNY     44  35  70 CALM      30.26R
6HR MIN TEMP:  32; 6HR MAX TEMP:  44;

HOUGHTON       SUNNY     61  34  36 W21       30.17R
6HR MIN TEMP:  45; 6HR MAX TEMP:  61;

COPPER HARBOR    N/A     68  33  27 NW16G35   30.11R
6HR MIN TEMP:  45; 6HR MAX TEMP:  68;

IRONWOOD       SUNNY     57  36  44 SW10      30.21S
6HR MIN TEMP:  48; 6HR MAX TEMP:  57;

$$

ABBREVIATIONS USED IN REMARKS
   TC - TEMPERATURE IN CELSIUS
  WCI - WIND CHILL INDEX
   HX - HEAT INDEX
  VSB - VISIBILITY



USA.gov is the U.S. government's official web portal to all federal, state and local government web resources and services.